Temp
7 10 12 11 11 9 8 8 8 8 8 8 8 9 9 9 10 10 10 9 8 8 9 10 9 9 9 10 10 11 12 11 11 12 11 11 11 11 12 13 13 12 13 13 12 10 9 9 8 8 7 6 5 6 7 7 8 9 11 13 14 13 11 10 11 11 11 11 11 11 11 11 11 11 12 12 12 12 12 13 13 13 13 13 13 13
8 11 12 10 9 8 8 7 7 7 7 8 8 9 9 9 9 10 9 9 8 7 9 10 10 9 9 9 9 10 10 11 11 12 12 12 12 12 12 13 13 13 13 12 11 11 9 8 8 7 7 6 6 7 7 7 7 8 10 12 13 13 12 10 9 10 10 10 10 11 11 11 10 11 11 11 11 12 12 12 13 12 12 12 12 12
10 12 11 9 8 7 7 7 7 7 7 8 9 9 9 10 9 10 9 8 8 8 9 10 9 8 9 9 9 10 10 11 11 12 12 13 13 12 12 12 13 13 12 12 11 12 10 8 7 7 6 6 7 7 7 6 7 7 8 11 12 12 12 11 9 9 10 10 10 10 10 10 10 10 10 11 11 11 12 12 12 12 12 12 12 12
12 11 9 8 7 7 7 7 7 7 8 8 9 9 10 10 9 9 9 7 8 8 8 8 8 9 10 10 10 10 10 10 10 10 11 11 11 12 12 12 12 12 13 12 12 12 11 9 7 7 6 6 6 7 7 6 7 7 6 9 12 11 11 12 11 9 9 10 10 9 10 10 11 10 9 10 10 10 11 11 11 11 11 11 11 11
11 9 7 7 6 7 8 7 7 8 9 9 9 9 10 9 8 8 8 7 8 8 7 7 9 11 12 11 10 10 9 9 9 9 9 9 9 10 10 11 11 12 12 12 12 12 11 10 9 8 7 6 6 6 7 7 7 8 7 7 10 12 11 11 11 10 8 9 9 9 9 9 10 9 8 8 8 9 9 10 10 10 10 10 10 11
10 6 6 7 7 7 8 8 8 9 10 10 9 9 9 8 7 6 7 7 8 9 8 7 9 12 12 11 11 10 9 9 9 9 10 11 11 10 9 10 10 11 11 11 12 12 11 11 10 8 7 6 6 6 7 8 7 8 8 7 7 10 11 10 10 10 9 8 9 9 9 8 7 7 7 8 8 8 8 9 9 9 9 9 10 10
8 5 5 7 7 7 8 8 9 8 9 10 9 8 8 7 6 6 7 7 8 9 9 7 8 10 12 12 11 9 8 9 9 9 9 10 11 11 10 10 10 10 10 10 10 11 11 11 11 9 8 7 6 6 7 7 7 6 7 8 7 7 10 11 10 9 10 9 9 8 8 7 7 7 7 8 9 9 8 9 9 9 8 9 9 9
6 5 5 6 7 7 8 9 9 8 9 10 7 6 7 7 6 6 6 7 7 7 8 8 7 8 10 11 10 9 10 11 12 12 11 10 11 11 11 11 10 10 10 10 10 10 10 11 11 10 9 8 7 7 6 6 6 6 6 7 7 6 7 10 11 10 9 9 9 8 7 7 7 7 7 7 8 8 9 8 8 8 8 8 8 8
4 6 7 6 7 8 9 9 8 8 9 8 6 6 7 6 6 6 6 7 6 5 8 8 7 8 10 12 11 9 10 13 14 13 12 12 12 12 12 11 11 11 10 10 10 10 10 10 10 10 10 9 7 7 6 6 6 6 6 6 6 6 6 7 9 10 10 10 10 9 8 7 7 6 6 6 7 8 8 8 7 7 7 7 7 7
4 5 5 6 8 9 9 7 7 8 8 6 5 6 6 5 5 4 5 7 5 5 8 7 6 8 11 13 13 11 11 13 14 13 12 12 12 12 12 11 11 11 10 10 10 10 10 10 10 10 9 9 8 7 6 6 5 5 5 5 5 6 6 5 6 7 9 10 10 9 8 8 8 6 5 5 6 6 7 7 7 7 7 7 6 6
3 3 3 5 7 7 7 5 5 6 6 5 5 6 6 5 4 4 4 5 6 7 8 5 4 7 9 13 15 14 13 14 13 13 12 12 12 12 12 12 11 11 10 10 10 10 10 10 10 9 9 9 8 7 6 5 5 5 5 5 5 5 5 5 5 5 6 8 10 9 8 8 8 7 5 4 4 5 5 5 6 6 6 6 6 6
3 3 4 4 4 5 6 6 5 5 5 6 6 6 7 7 6 6 6 5 8 11 7 3 3 5 8 12 15 15 14 13 13 13 12 12 12 12 11 11 12 11 10 10 9 9 9 9 9 9 9 9 8 6 6 5 5 5 4 4 5 5 5 5 5 5 4 6 8 9 8 7 7 8 7 6 4 4 4 5 5 5 5 5 5 5
5 3 3 4 3 4 6 7 6 5 6 6 6 6 8 10 9 9 9 8 10 11 6 2 3 5 7 11 13 13 13 13 14 13 13 12 12 12 11 12 11 10 9 9 9 9 9 9 8 8 8 8 8 7 6 5 5 5 4 4 4 5 5 5 5 5 4 5 6 8 8 7 6 6 7 6 5 4 4 5 5 5 5 5 5 5
9 5 2 3 5 4 6 8 8 7 7 6 7 8 9 10 10 10 10 9 10 9 5 2 4 6 9 11 12 13 13 14 14 13 13 13 12 12 12 12 11 10 9 9 9 9 9 9 9 9 9 8 8 7 6 6 5 5 5 4 4 4 4 4 4 4 5 4 5 6 7 7 6 5 5 5 5 5 5 4 5 5 6 6 6 5
11 10 5 4 6 5 6 7 8 8 7 6 6 7 8 9 10 10 10 10 9 9 6 4 5 8 11 14 14 14 14 14 13 13 13 12 12 12 11 11 11 10 10 10 9 9 9 9 9 9 8 8 8 7 6 6 5 5 5 5 4 4 4 4 4 4 4 5 4 5 6 6 5 5 5 4 5 5 5 4 5 5 5 4 4 5
8 10 6 3 4 5 6 6 6 7 7 6 4 6 8 8 9 9 8 7 6 6 6 5 7 10 12 14 14 14 14 13 13 13 12 12 12 11 11 11 11 12 12 11 10 10 10 10 10 9 9 8 8 7 7 6 5 5 5 5 5 4 4 4 4 4 4 4 4 4 5 5 5 5 5 4 4 4 4 4 4 4 3 4 4 5
8 9 4 3 4 4 5 6 5 7 8 6 6 7 7 6 8 9 6 5 4 6 8 8 9 11 12 14 13 12 12 13 13 13 12 12 12 12 11 12 12 12 12 12 11 11 11 10 10 9 9 8 8 7 7 6 6 5 5 5 5 5 5 4 3 3 3 4 4 4 4 4 4 4 5 5 4 4 3 3 3 4 4 5 5 6
10 10 4 3 5 4 3 4 4 5 6 6 8 7 6 5 6 8 7 7 7 8 9 9 9 11 12 13 14 13 14 14 13 13 13 13 13 12 12 12 13 13 12 12 12 11 11 11 11 10 9 8 8 7 7 6 6 6 5 5 5 5 5 4 3 3 3 3 4 4 4 3 3 4 4 5 5 4 4 3 3 4 5 5 5 5
9 11 6 2 5 4 2 4 6 4 4 6 7 6 6 7 7 7 7 8 8 8 9 9 9 10 11 12 14 15 15 15 14 13 13 13 13 13 13 13 13 13 12 11 11 12 12 12 12 11 9 9 8 8 7 7 6 5 5 5 5 5 5 4 3 3 3 3 3 3 3 3 3 4 4 5 5 4 4 4 4 4 4 4 4 4
8 11 9 3 4 5 4 5 7 6 4 5 6 6 6 7 8 7 7 8 8 8 9 9 9 11 13 14 14 15 15 15 15 14 14 14 14 14 14 14 14 13 12 12 12 12 12 12 12 11 10 9 8 8 7 6 6 5 5 5 4 5 5 4 3 3 3 3 3 3 3 3 3 3 4 4 4 4 4 4 4 3 3 3 3 3
7 9 9 5 4 5 6 7 8 7 5 4 6 6 5 6 6 7 7 7 8 8 8 8 8 11 14 15 14 15 15 15 14 14 14 14 14 14 14 13 13 13 12 12 12 12 12 11 11 11 10 9 8 8 7 6 6 5 5 5 4 4 4 4 3 3 3 3 3 3 3 2 2 3 3 3 4 4 4 4 4 3 3 2 2 3
7 8 9 6 4 6 8 7 7 8 7 6 7 6 6 6 6 6 7 7 7 7 8 8 8 10 13 14 14 14 14 14 14 13 13 13 14 13 13 13 12 12 12 12 12 12 11 10 10 10 8 8 7 7 7 6 6 5 5 5 4 4 4 4 3 2 3 2 2 2 2 2 2 2 2 3 3 4 4 3 3 4 3 3 3 3
7 7 8 7 6 7 7 5 4 6 7 7 7 7 7 7 7 8 8 8 7 7 8 7 7 9 13 13 13 13 14 13 13 13 12 12 12 12 12 12 12 11 11 11 11 10 10 9 8 7 6 6 6 6 6 6 5 5 5 4 4 4 4 3 3 2 2 2 2 2 2 2 2 2 2 2 2 3 3 2 2 3 4 4 3 3
6 7 8 8 8 7 5 4 4 5 6 6 7 7 7 7 8 8 8 8 7 6 7 7 6 9 13 13 13 13 12 12 12 12 12 11 11 11 12 12 11 11 11 10 10 9 8 7 6 5 5 5 5 5 5 6 5 5 4 4 4 4 3 3 2 2 2 2 2 2 2 2 2 2 2 2 2 2 2 2 1 1 3 4 3 3
8 8 8 8 9 8 7 6 5 4 5 6 7 7 7 7 8 7 7 7 6 7 8 7 7 10 13 12 12 12 12 12 13 13 13 12 11 11 11 11 11 10 10 10 9 8 7 6 5 4 4 4 5 5 5 5 5 4 4 4 3 3 3 3 2 2 2 2 2 2 1 2 2 2 1 1 1 1 1 1 0 1 2 3 3 3
8 8 8 9 10 11 11 10 8 6 5 6 7 7 7 7 7 7 7 6 6 7 8 7 8 12 13 13 13 13 13 13 14 14 14 13 12 11 11 11 11 10 10 9 9 8 6 5 4 3 3 4 4 4 4 4 4 4 4 3 3 3 3 2 2 2 2 1 1 1 1 2 2 1 1 1 1 1 1 0 -0 -0 1 2 2 2
6 6 7 8 10 12 12 10 7 7 6 6 7 7 6 7 7 7 7 6 7 7 7 8 9 10 12 12 13 13 13 13 13 14 13 13 12 11 11 10 10 9 9 9 8 7 5 4 3 2 3 3 3 4 4 4 4 4 3 3 2 2 2 1 1 1 1 1 1 1 1 1 1 1 1 1 1 1 0 0 -0 -1 -0 1 1 1
5 5 6 7 7 9 10 8 6 7 7 7 8 7 7 7 7 7 6 7 8 7 8 9 10 9 10 11 12 12 13 13 13 13 13 12 12 11 10 10 9 9 9 8 7 6 5 3 3 2 2 2 3 3 3 3 3 2 2 2 1 1 1 1 1 1 1 1 1 1 1 1 1 1 1 0 0 0 0 -0 -1 -1 -1 -1 0 0
6 6 6 5 6 7 8 7 6 6 7 7 7 8 8 7 7 6 6 7 8 8 8 10 10 9 10 11 12 13 13 13 13 12 12 11 11 10 10 10 9 9 9 8 7 6 4 3 3 2 2 2 2 2 2 2 1 1 1 1 1 1 1 1 1 1 1 0 1 1 1 0 0 0 0 0 -0 -0 -0 -1 -1 -2 -1 -1 -1 -1
6 6 6 5 5 6 6 7 6 6 6 6 6 7 7 7 7 7 7 8 8 8 9 10 9 10 11 11 12 12 13 12 12 11 11 10 10 10 10 9 9 9 9 8 7 6 5 3 3 2 1 2 2 2 1 1 1 1 1 0 0 0 0 0 0 0 0 0 1 1 0 0 0 -0 -0 -0 -0 -0 -1 -1 -2 -2 -2 -1 -2 -1
6 6 5 4 4 5 5 6 6 6 6 6 6 6 7 7 7 7 7 7 7 7 8 8 8 8 10 11 11 11 11 11 10 10 10 10 10 10 9 9 9 9 8 8 7 5 4 3 2 2 1 1 2 1 1 0 0 0 0 -0 -0 -0 -1 -0 -0 0 0 0 0 0 -0 -0 -0 -1 -1 -1 -1 -1 -2 -2 -2 -2 -2 -2 -2 -2
5 5 3 3 4 6 6 5 5 5 5 4 5 5 6 6 6 7 7 7 7 7 7 7 7 8 10 11 11 11 11 10 10 10 10 10 10 9 9 9 9 9 8 7 6 5 4 3 2 1 1 1 2 1 0 0 -0 -0 -0 -1 -1 -1 -1 -1 -1 -0 -0 -0 -0 -0 -1 -1 -1 -1 -1 -1 -2 -2 -2 -2 -2 -2 -2 -2 -2 -2
4 4 4 4 5 6 5 3 4 4 5 5 6 7 7 6 6 6 7 7 7 7 7 7 8 9 11 11 10 11 11 11 11 11 10 10 9 9 9 9 9 8 8 7 6 5 4 3 2 2 2 2 1 1 0 -0 -0 -0 -0 -1 -1 -1 -1 -1 -1 -1 -1 -1 -1 -1 -1 -1 -1 -1 -2 -2 -2 -2 -2 -2 -2 -2 -2 -2 -2 -2
3 4 4 4 5 5 4 3 4 5 6 8 9 9 9 9 8 7 7 8 8 8 8 9 10 11 11 11 11 11 11 11 11 11 10 9 8 8 8 8 8 8 7 6 5 4 4 3 3 2 2 2 1 1 0 -0 -0 -0 -1 -1 -1 -1 -1 -1 -1 -1 -1 -1 -1 -1 -1 -1 -2 -2 -2 -2 -2 -2 -2 -2 -2 -2 -2 -3 -3 -2
3 4 3 3 4 4 3 4 6 7 7 8 8 8 9 9 9 9 8 9 9 8 8 9 9 10 10 11 11 11 11 11 10 9 9 9 8 8 8 8 8 8 7 6 5 4 4 3 3 2 2 1 1 1 0 -0 -0 -0 -1 -1 -1 -1 -2 -1 -1 -1 -1 -1 -1 -1 -1 -2 -2 -2 -2 -2 -2 -2 -2 -2 -2 -3 -3 -3 -3 -3
3 3 3 3 3 4 4 5 7 8 8 7 8 9 9 8 7 7 8 9 10 9 8 8 9 10 10 10 10 11 10 9 9 9 9 10 9 9 8 9 9 8 7 6 5 4 4 3 3 3 2 1 1 1 0 -0 -0 -0 -1 -1 -1 -2 -2 -1 -1 -1 -1 -1 -1 -1 -2 -2 -2 -2 -2 -2 -2 -2 -2 -2 -3 -3 -3 -3 -3 -3
5 4 3 3 4 4 4 5 7 8 7 8 10 11 9 8 7 7 9 11 12 11 9 9 9 10 10 10 10 10 9 8 8 10 12 12 11 9 8 9 9 7 6 5 4 4 3 3 3 2 2 1 1 0 0 -0 -1 -1 -1 -1 -1 -2 -2 -1 -1 -1 -1 -1 -1 -1 -2 -2 -2 -2 -2 -2 -2 -2 -2 -2 -3 -3 -3 -3 -3 -3
5 4 4 4 4 4 4 4 6 6 6 9 11 9 8 8 8 8 9 11 13 12 10 9 10 10 10 10 10 9 8 8 11 13 14 13 12 10 9 8 7 6 5 4 3 3 3 2 2 2 2 2 1 0 0 -0 -1 -1 -1 -2 -2 -2 -1 -1 -1 -1 -1 -1 -1 -1 -2 -2 -2 -2 -2 -2 -2 -2 -2 -3 -3 -3 -3 -3 -3 -3
3 4 4 4 4 3 3 4 5 6 7 10 10 8 7 7 7 8 9 11 13 13 11 10 11 11 11 10 9 8 8 10 13 15 15 13 12 10 9 9 7 5 4 3 3 3 2 2 1 1 1 1 1 1 -0 -0 -1 -1 -1 -2 -2 -2 -1 -1 -1 -1 -1 -1 -1 -1 -1 -2 -2 -2 -2 -2 -2 -2 -2 -3 -3 -3 -3 -3 -3 -3
2 2 3 3 3 3 3 4 5 6 8 9 9 8 7 6 6 8 10 12 14 13 10 10 11 11 10 9 8 8 10 13 15 15 13 11 10 9 8 9 8 6 4 3 2 2 2 1 1 1 1 1 1 1 -0 -0 -1 -1 -1 -1 -2 -2 -1 -1 -1 -1 -1 -1 -1 -1 -1 -2 -2 -2 -2 -2 -2 -2 -2 -3 -3 -3 -3 -3 -3 -3
1 1 2 2 3 4 3 4 4 6 8 8 9 8 6 6 7 9 11 13 14 13 10 10 11 10 8 8 8 9 11 13 14 12 10 9 9 9 8 7 5 4 3 2 2 1 1 1 1 1 1 1 1 1 -0 -0 -1 -1 -1 -1 -1 -1 -1 -1 -1 -1 -1 -1 -1 -1 -1 -1 -1 -2 -2 -2 -2 -3 -3 -3 -3 -3 -3 -3 -3 -3
0 1 1 2 3 3 4 3 3 5 7 8 8 8 7 7 9 11 12 14 15 14 11 10 10 9 8 7 8 10 12 12 11 10 10 10 10 10 9 7 6 4 3 1 0 0 1 1 1 1 1 0 -0 0 -0 -1 -1 -1 -1 -1 -1 -1 -1 -2 -1 -1 -1 -1 -1 -1 -1 -1 -1 -2 -2 -2 -3 -3 -3 -3 -3 -3 -3 -3 -3 -3
2 2 1 1 2 3 3 2 3 5 8 8 8 7 7 9 11 13 13 13 13 13 12 11 10 8 8 8 9 10 11 11 10 9 9 9 8 9 9 8 8 7 4 2 1 1 0 1 1 1 1 0 -1 -1 -1 -1 -0 -0 -1 -0 -0 -1 -1 -1 -1 -1 -1 -1 -1 -1 -2 -2 -2 -2 -2 -3 -3 -2 -3 -3 -3 -3 -3 -3 -3 -3
5 5 4 3 3 3 2 2 4 7 8 8 8 8 8 9 12 13 12 12 12 12 11 12 11 8 8 10 11 10 10 9 10 10 9 8 8 9 9 9 9 8 6 4 2 1 0 1 2 1 0 -0 -1 -1 -1 -1 -0 -0 -0 -0 -0 -1 -1 -1 -1 -1 -1 -1 -1 -2 -2 -2 -2 -2 -2 -2 -2 -2 -3 -3 -3 -3 -3 -3 -3 -4
7 8 7 5 5 6 6 6 7 8 8 7 9 10 9 9 10 11 11 11 12 10 9 11 13 10 8 9 11 10 8 9 10 10 9 9 9 9 9 9 8 7 6 4 2 1 0 1 2 1 0 -0 -1 -1 -1 -1 -1 -0 -1 -0 -0 -1 -1 -1 -1 -1 -1 -1 -1 -2 -2 -2 -2 -2 -2 -2 -3 -3 -3 -3 -3 -3 -4 -4 -4 -4
8 8 9 8 7 7 7 8 8 8 7 7 8 9 9 9 9 10 10 10 11 10 9 10 12 11 9 8 8 9 9 9 10 9 8 8 8 8 7 7 6 6 5 4 2 0 -0 1 1 0 0 -0 -1 -1 -1 -1 -1 -1 -1 -0 -1 -1 -1 -1 -1 -1 -1 -1 -1 -2 -2 -2 -2 -2 -2 -3 -3 -3 -3 -3 -3 -4 -4 -4 -4 -4
7 7 8 8 8 7 8 9 9 8 8 8 7 8 8 8 8 8 8 9 10 9 9 8 9 9 8 7 7 9 10 9 9 9 9 8 7 7 7 7 7 6 6 5 4 1 -1 0 1 0 0 -0 -1 -1 -1 -1 -1 -1 -1 -1 -1 -1 -1 -1 -1 -1 -1 -1 -1 -2 -2 -2 -3 -3 -3 -3 -3 -3 -3 -3 -3 -3 -4 -4 -4 -4
8 7 7 7 7 8 9 10 9 9 9 8 8 8 8 8 8 7 7 7 8 8 8 7 7 7 7 6 7 8 9 9 9 9 8 8 8 8 8 8 8 7 6 5 3 1 -0 0 1 1 0 0 -0 -1 -1 -1 -1 -1 -1 -1 -1 -1 -1 -1 -2 -2 -2 -1 -1 -2 -2 -2 -3 -3 -3 -3 -3 -3 -3 -3 -3 -3 -3 -4 -4 -4
8 7 7 7 7 8 8 9 9 8 8 8 8 8 8 8 8 8 7 7 7 7 7 7 7 7 7 7 7 7 7 8 8 8 8 8 8 8 8 9 9 8 6 5 3 1 1 1 1 1 1 1 1 -0 -1 -1 -0 -1 -1 -1 -1 -1 -1 -2 -2 -2 -2 -2 -2 -2 -2 -2 -2 -3 -3 -3 -3 -3 -3 -3 -3 -3 -3 -3 -3 -3
7 7 8 8 7 7 8 9 9 9 9 9 9 8 8 8 8 8 8 8 7 7 7 7 8 7 7 7 6 6 7 7 7 8 7 7 7 8 8 8 8 8 7 5 3 2 1 1 1 1 1 2 2 1 -0 -0 -0 -0 -1 -1 -1 -1 -2 -2 -2 -2 -2 -2 -2 -2 -2 -2 -2 -3 -3 -3 -3 -3 -3 -3 -3 -3 -3 -3 -3 -3
8 9 9 8 8 9 10 10 10 10 10 11 11 10 9 9 8 8 8 8 8 8 8 8 8 8 8 7 6 6 6 7 7 7 7 7 7 7 7 7 7 7 7 6 4 2 -0 0 1 1 1 2 2 2 1 0 -0 -0 -1 -1 -2 -2 -2 -2 -2 -2 -2 -2 -2 -2 -2 -2 -2 -3 -3 -3 -3 -3 -3 -3 -3 -3 -3 -3 -3 -3
Height
839 829 823 823 827 834 840 840 838 841 842 839 837 833 829 824 816 813 813 814 820 817 804 799 800 794 788 781 776 773 774 773 770 767 766 765 765 763 761 759 758 759 758 758 760 761 762 763 764 765 765 766 767 767 767 767 767 766 765 765 767 771 774 773 772 772 774 777 781 784 787 790 793 795 797 799 801 803 806 808 811 813 816 819 820 823
838 824 822 829 833 838 841 843 845 844 845 842 837 831 826 823 817 813 815 816 819 820 805 795 794 788 785 779 771 770 771 768 763 761 758 756 758 759 757 755 753 753 755 756 758 758 760 760 761 763 763 764 764 764 765 765 766 766 765 763 764 767 771 774 774 772 773 777 780 782 785 787 790 792 795 797 799 802 805 807 809 812 814 817 819 821
830 820 825 835 838 841 843 844 845 843 843 840 834 830 823 819 818 813 815 820 821 819 805 795 795 784 776 773 765 763 765 761 757 755 753 751 752 753 752 751 751 751 752 753 754 754 756 758 759 761 761 761 761 762 763 764 765 766 764 761 761 764 767 772 775 774 773 776 780 783 786 788 789 792 794 795 798 800 803 805 807 810 812 815 817 819
818 819 830 838 841 841 841 843 844 841 839 836 832 828 819 817 822 815 814 820 818 816 810 804 798 776 761 762 758 758 759 758 757 755 754 754 752 749 749 750 750 750 749 749 751 752 753 756 757 758 759 759 759 760 760 761 762 763 764 761 758 761 765 768 773 775 774 774 778 782 785 788 790 793 795 795 798 800 801 804 806 808 810 812 815 817
819 829 837 840 843 839 837 839 840 837 829 828 830 828 820 820 830 825 820 821 813 813 817 808 786 757 751 757 752 755 760 758 757 756 754 753 752 752 750 750 749 748 748 748 748 750 751 752 754 755 755 757 757 758 757 758 759 759 761 762 758 757 762 767 769 773 775 774 776 780 784 789 790 792 795 795 796 799 800 802 803 806 808 811 813 815
825 839 842 839 842 839 837 834 833 833 826 822 824 826 825 826 835 833 827 824 812 805 811 814 793 755 746 753 749 753 759 755 754 753 750 746 746 750 750 749 748 747 748 748 747 748 749 750 751 752 753 754 755 755 755 755 757 757 758 761 761 756 758 765 768 770 774 774 773 776 780 784 786 787 789 790 791 794 797 799 801 804 806 809 811 813
832 842 843 838 838 838 837 831 830 833 826 820 823 829 830 832 838 836 831 828 817 807 806 817 813 777 749 744 747 756 759 753 751 750 748 745 743 744 745 745 746 746 746 746 746 746 746 747 748 749 750 751 752 752 753 754 756 757 757 758 761 760 757 760 765 767 770 773 773 774 777 780 781 782 783 785 789 791 794 797 799 802 804 806 809 811
838 842 842 839 837 836 833 826 827 833 826 820 830 836 832 833 835 834 835 829 823 821 812 812 818 802 773 750 748 758 753 743 741 740 742 743 742 741 740 741 742 742 743 743 744 743 743 744 744 745 746 747 748 749 751 753 754 756 757 757 759 762 760 758 761 764 766 769 771 773 776 779 781 782 782 783 787 791 793 796 797 800 802 804 807 809
842 839 837 837 835 831 826 824 827 830 825 826 837 839 834 837 837 837 839 829 831 833 813 808 818 806 777 747 743 754 749 737 733 733 736 736 736 738 737 739 739 739 740 740 741 741 740 741 741 742 743 744 746 747 749 751 753 754 756 757 758 760 762 759 758 761 763 765 769 772 773 777 780 782 783 782 785 790 792 795 797 798 801 803 805 807
844 841 840 838 831 826 824 830 833 829 828 834 840 839 838 841 839 843 840 829 838 835 808 811 823 804 770 738 734 747 744 735 731 730 734 733 733 736 735 736 737 737 739 738 738 738 738 738 739 740 741 742 743 745 747 749 752 753 754 756 758 758 761 761 759 760 762 760 763 769 770 772 776 780 783 784 784 787 790 792 794 796 799 801 804 806
846 848 847 840 833 829 831 837 839 836 836 838 840 837 835 838 842 845 842 838 834 816 806 825 832 817 785 740 724 734 732 729 730 729 732 732 732 733 732 733 733 734 736 736 736 736 736 736 737 739 739 740 741 742 745 747 748 751 752 754 756 757 759 760 760 761 763 760 756 762 767 769 772 776 781 784 784 785 787 789 790 793 796 799 802 804
848 846 841 841 840 837 835 837 840 841 840 838 840 839 828 823 832 832 833 838 814 785 808 841 840 831 802 750 722 725 727 728 730 730 731 730 729 730 730 730 730 732 733 734 735 734 735 735 736 737 737 738 740 739 741 743 745 747 749 750 752 754 756 758 760 760 763 762 755 755 762 768 770 771 774 778 781 781 783 785 787 790 793 796 800 802
836 842 842 841 841 840 834 831 836 839 838 837 838 838 820 803 806 805 803 812 795 783 821 849 839 825 795 754 734 729 727 727 725 726 727 727 727 727 727 726 726 730 731 732 733 732 733 733 733 734 734 735 737 736 737 739 741 743 745 747 748 749 751 754 757 758 759 762 757 753 756 764 768 769 770 773 776 779 780 782 783 785 788 792 795 798
812 832 848 842 834 838 832 822 822 826 832 834 830 827 814 802 805 803 797 800 794 795 824 845 836 811 773 743 734 729 724 723 723 724 724 724 726 724 724 724 725 727 728 729 729 729 730 730 730 731 731 732 733 733 735 737 738 739 740 742 744 745 748 749 751 753 754 757 758 754 754 760 764 766 769 771 773 776 778 780 781 782 784 786 789 792
798 802 828 836 828 831 831 823 818 819 826 833 835 832 820 812 810 805 799 798 796 799 817 836 825 789 754 728 720 721 721 721 722 722 722 723 724 724 724 724 724 724 724 725 726 726 726 727 727 728 729 729 729 730 732 734 735 736 737 737 739 740 743 745 746 749 750 752 755 754 753 757 760 763 766 770 772 774 775 777 780 782 783 784 787 790
818 803 823 837 832 832 829 828 829 823 824 834 841 835 822 817 812 809 814 818 823 822 816 818 800 764 742 724 716 721 720 719 721 719 722 723 721 724 724 722 722 719 719 720 722 722 722 723 724 725 725 725 726 728 729 729 731 732 733 734 735 736 739 741 742 744 747 749 751 753 753 755 758 760 763 766 770 772 774 777 779 780 782 784 787 790
816 809 831 839 833 837 830 828 834 824 820 831 833 823 821 829 821 815 825 834 842 829 800 792 779 753 739 724 716 725 722 718 720 717 719 720 718 721 721 719 718 716 716 716 717 718 718 719 720 720 721 721 722 724 724 725 725 726 729 731 733 734 735 737 739 741 744 746 748 751 753 754 756 758 758 761 766 770 774 777 779 780 781 784 787 789
799 801 830 838 828 835 837 832 836 832 828 827 821 819 825 833 827 821 822 820 819 808 786 781 774 755 746 731 716 719 717 713 718 718 718 717 717 719 717 716 715 714 714 714 713 714 714 715 716 716 717 717 717 718 719 720 722 723 725 726 729 731 731 732 734 736 740 743 746 748 750 752 754 756 757 757 761 767 772 776 777 778 779 781 784 787
802 795 819 841 830 831 840 832 827 833 836 827 820 825 824 820 821 826 823 811 806 802 785 777 773 758 746 733 717 712 709 708 713 716 717 715 714 714 712 711 711 711 713 712 711 711 710 711 711 711 712 712 713 714 714 716 718 720 722 722 724 727 728 729 731 733 735 738 742 744 747 749 752 755 756 757 759 764 769 773 774 776 777 779 783 785
809 793 803 834 833 829 836 828 818 823 835 834 826 828 826 818 817 819 820 815 810 806 793 781 773 748 725 719 716 710 706 707 710 712 712 711 709 708 708 707 707 708 709 709 708 707 706 707 707 707 708 708 710 710 711 713 714 715 717 718 721 723 727 728 728 729 731 734 737 741 744 747 750 753 755 755 757 761 766 769 771 773 776 778 781 783
814 802 799 824 834 827 821 815 808 809 824 831 826 827 829 826 824 822 821 818 811 808 807 801 782 741 710 708 710 706 705 706 708 710 709 707 706 706 707 706 706 706 706 705 704 703 703 703 703 704 704 705 706 707 707 708 709 710 712 714 716 719 723 725 725 726 728 731 733 736 741 745 748 751 753 754 755 759 763 766 769 771 774 777 778 781
811 806 801 818 830 820 806 806 807 804 809 815 814 818 820 818 822 821 815 813 813 811 805 804 792 748 708 705 707 705 706 706 707 710 708 707 707 706 706 705 705 705 703 702 701 700 700 700 700 701 701 702 703 702 703 703 704 706 707 709 712 716 719 721 722 723 725 728 730 732 736 740 744 748 751 753 755 758 760 763 766 769 771 774 776 778
809 809 806 810 813 807 805 813 816 810 807 809 808 808 809 810 811 806 800 803 813 813 801 806 807 755 703 702 709 705 706 707 708 710 710 710 708 706 705 703 702 702 700 699 699 698 697 697 697 698 698 699 698 698 699 699 699 701 702 705 708 712 715 717 719 720 722 726 728 729 732 736 741 745 748 751 753 756 758 760 763 766 768 771 774 777
809 807 804 800 797 803 813 819 820 816 813 811 807 805 806 807 802 796 796 798 806 809 801 810 806 748 698 702 708 705 710 711 709 709 708 709 707 704 703 700 699 699 697 697 696 695 694 694 695 696 695 695 694 694 694 694 694 696 698 701 705 708 711 714 717 719 720 723 725 727 730 732 737 742 745 749 751 753 756 757 760 763 765 769 773 775
800 799 799 796 789 793 802 807 813 817 816 807 799 801 803 801 802 803 803 806 806 797 791 800 784 728 697 705 707 706 710 706 703 703 701 703 703 700 699 698 696 696 694 693 692 691 691 691 692 692 691 691 690 689 690 690 691 692 694 698 701 704 708 711 714 716 718 721 723 726 728 730 734 739 742 746 748 751 754 756 758 761 764 768 771 774
794 796 795 788 776 767 765 773 786 798 808 805 796 798 800 799 803 803 804 810 804 788 785 785 757 711 694 700 700 701 704 700 697 696 695 697 698 697 697 695 693 693 691 690 689 688 689 689 690 690 689 688 687 686 687 687 688 690 692 696 699 702 705 708 710 713 716 719 721 723 726 730 732 735 738 742 746 749 751 754 757 759 762 766 769 771
799 802 795 784 772 758 753 767 783 788 794 797 792 792 796 796 797 797 800 799 789 783 777 760 743 725 706 698 698 698 698 696 693 692 692 694 694 694 694 692 691 690 688 687 687 686 687 687 688 688 686 686 685 685 686 686 687 689 691 694 698 700 703 705 707 711 714 717 719 722 726 729 730 731 734 739 743 746 748 752 755 758 760 764 767 769
801 799 794 791 786 774 768 779 790 788 785 785 784 785 788 791 793 795 793 781 776 782 764 736 740 744 719 700 700 697 693 692 691 690 691 692 692 692 691 690 688 686 684 684 684 684 685 685 686 686 685 684 684 685 685 686 687 689 691 693 696 698 700 703 705 709 712 715 717 720 724 728 729 730 733 737 741 744 746 749 753 756 759 762 765 767
794 791 790 794 792 783 779 783 787 789 787 783 781 779 780 784 787 787 782 772 771 771 748 726 735 737 715 703 700 694 692 693 691 691 691 692 692 690 688 688 686 682 681 681 680 680 682 682 684 684 683 683 683 684 685 687 688 689 690 692 694 696 699 702 705 708 710 713 715 717 721 726 730 732 733 735 739 742 744 747 750 754 757 760 763 766
791 787 789 795 795 789 785 783 785 788 787 783 780 777 775 776 776 774 770 766 765 759 741 733 736 727 710 702 697 690 692 695 694 693 692 692 690 688 688 687 683 680 679 678 677 678 679 680 682 682 682 682 682 683 684 686 688 688 690 691 693 696 699 702 705 707 708 711 713 716 721 725 729 732 732 734 736 739 741 744 748 751 755 759 762 765
789 787 793 800 800 792 785 783 784 784 784 781 777 772 771 772 771 768 763 761 762 756 743 741 744 729 704 694 696 695 694 697 697 694 692 690 688 688 687 685 681 678 676 675 675 676 676 678 681 681 682 681 681 682 683 685 687 688 690 691 693 696 699 702 705 706 707 710 713 717 720 723 727 731 731 732 734 736 739 742 746 750 753 757 760 763
791 793 799 804 798 783 780 786 786 783 785 785 778 770 769 769 764 757 752 750 751 748 744 748 748 725 695 688 696 695 693 696 694 690 690 688 686 687 685 682 679 676 675 674 673 674 675 676 679 680 680 680 681 681 682 684 686 688 690 691 693 696 699 702 704 706 708 710 714 716 718 720 725 729 730 731 732 735 738 741 745 748 752 755 758 761
791 791 794 799 791 779 784 792 790 788 783 768 754 748 748 750 749 746 741 738 738 738 739 738 725 701 686 689 694 691 688 690 688 685 688 687 685 685 683 680 677 674 673 673 672 673 673 673 677 679 679 679 680 681 682 683 685 687 689 691 693 696 699 702 704 706 708 711 713 716 717 719 722 726 729 730 731 734 737 740 743 747 750 754 756 759
791 788 789 792 784 781 791 792 789 784 761 731 720 722 724 727 731 734 731 726 726 728 724 714 700 689 686 688 689 687 684 683 684 684 686 687 687 685 680 677 675 673 671 671 671 671 671 671 674 677 677 679 680 680 682 683 684 686 689 691 694 696 698 701 703 705 708 710 712 714 716 718 720 724 727 729 730 733 735 738 742 745 749 752 755 757
789 789 793 795 789 786 791 789 777 758 734 721 723 724 721 720 720 721 719 713 713 717 714 707 699 689 683 681 683 685 683 682 685 685 683 683 683 682 680 676 673 671 670 669 669 669 669 670 672 674 676 677 678 680 681 682 684 686 687 690 693 695 697 700 702 704 706 708 710 712 714 716 719 722 725 727 728 730 733 736 740 744 747 750 753 755
783 787 791 796 793 788 789 783 758 729 719 724 722 715 717 723 725 727 718 701 697 704 705 702 695 684 679 680 681 682 685 688 689 684 677 675 675 676 677 673 669 670 669 667 668 668 667 668 669 671 674 676 677 678 679 682 684 685 687 689 691 693 696 698 700 702 704 706 707 710 712 715 718 720 722 724 726 728 731 734 738 741 745 748 752 755
774 781 784 787 783 778 779 771 746 730 728 719 705 702 711 715 718 720 708 683 675 686 692 691 686 679 676 677 678 682 689 694 689 677 668 667 669 671 672 670 668 669 668 667 667 666 666 667 667 669 672 674 676 677 677 680 683 685 686 688 690 692 694 696 698 699 701 703 705 707 710 713 716 718 720 722 724 726 728 732 736 739 743 746 750 752
770 774 776 776 772 771 775 769 755 748 734 708 697 704 709 709 709 711 704 684 667 669 677 678 675 672 671 673 678 685 692 691 680 666 660 663 666 668 668 668 668 668 668 666 666 666 666 666 667 668 670 672 675 676 677 678 681 684 686 686 688 690 691 693 695 696 699 701 703 705 708 711 714 717 719 720 722 724 727 730 734 737 740 744 747 749
775 773 771 772 772 776 780 771 756 741 718 699 701 708 710 712 711 710 706 684 659 657 668 670 668 666 667 671 679 685 687 680 666 657 657 660 663 665 666 666 666 667 667 666 665 665 665 665 666 667 668 670 672 675 677 677 678 681 683 685 686 687 688 689 691 693 696 699 701 704 706 709 712 715 717 719 721 723 726 728 732 734 738 742 745 747
779 776 777 776 770 770 774 766 747 726 707 701 705 709 712 714 712 711 701 673 651 656 666 666 664 664 666 673 680 683 677 665 656 656 659 662 663 665 665 664 664 664 665 665 665 665 664 665 666 666 667 668 670 673 676 677 678 678 679 682 684 684 685 687 689 692 694 697 700 702 704 707 710 712 714 716 719 723 725 727 729 732 735 739 743 745
780 776 775 771 763 763 765 761 747 723 702 700 704 707 714 716 711 703 682 656 648 657 663 664 663 664 669 674 676 673 665 656 656 659 662 664 665 663 663 663 663 663 663 663 664 664 664 665 665 665 666 667 668 671 673 676 677 677 677 678 680 681 683 686 688 691 693 695 697 700 701 704 706 709 712 714 717 720 722 724 727 730 733 737 740 742
772 773 771 766 762 759 756 759 758 728 692 686 697 703 711 711 695 674 655 646 648 652 657 663 663 663 669 672 668 664 658 656 660 662 661 663 663 661 661 662 662 661 662 662 662 663 664 664 664 665 665 666 668 668 670 673 674 675 675 675 675 677 681 684 687 688 691 693 695 697 698 700 703 706 708 711 714 717 719 722 725 727 730 733 736 738
744 752 758 756 752 756 762 768 759 719 677 673 690 701 706 693 665 648 647 650 651 651 654 659 661 663 667 665 664 663 658 658 662 662 661 662 661 660 660 659 659 659 659 659 660 660 661 662 663 664 664 665 666 667 668 669 670 672 673 672 672 675 677 681 684 686 688 690 692 694 695 697 700 703 705 708 711 714 717 720 722 724 727 729 731 734
715 714 724 732 732 738 748 741 715 682 667 672 677 678 680 668 649 646 653 652 650 653 655 654 654 660 663 659 658 660 660 661 661 659 659 660 658 658 658 657 657 657 656 657 658 657 658 660 660 662 663 663 665 665 665 666 666 668 669 670 672 674 675 677 680 683 685 687 689 691 693 695 698 701 703 706 709 711 714 716 718 721 723 725 728 730
685 678 688 703 703 698 694 685 671 664 668 671 663 656 658 658 651 652 655 651 649 653 655 652 650 654 659 658 656 657 660 660 657 656 657 657 655 655 656 655 655 654 654 655 656 655 656 657 657 659 660 661 663 663 663 664 664 665 665 667 670 672 674 676 678 679 681 683 685 687 689 692 696 697 700 702 704 706 709 711 714 717 719 722 724 726
673 674 675 679 683 681 671 663 665 668 666 665 663 658 657 657 654 654 656 655 651 650 652 652 650 650 656 658 657 658 658 656 655 655 656 656 655 655 654 653 653 653 652 653 653 653 655 655 655 657 657 658 660 660 660 661 661 661 663 664 667 669 671 673 676 677 679 681 682 685 687 690 692 694 697 699 701 702 704 706 708 711 713 716 719 721
674 679 676 673 677 676 662 650 655 659 656 659 663 659 656 657 656 656 656 653 650 650 651 652 651 651 655 657 657 655 653 652 654 654 652 653 654 652 651 651 650 649 649 649 649 651 652 653 653 654 653 654 656 656 657 658 657 658 661 663 664 666 667 670 672 674 677 679 681 683 686 688 690 692 694 696 698 699 701 702 704 706 708 710 712 715
667 673 676 674 669 661 648 640 645 650 649 653 657 654 651 652 652 653 654 652 651 651 651 651 652 652 652 653 654 653 651 651 651 650 650 650 649 648 648 647 646 645 646 646 647 648 649 649 649 649 650 650 650 652 654 654 654 656 658 659 661 663 665 667 669 670 672 675 678 680 682 685 687 689 691 693 694 696 697 698 700 701 702 703 705 707
660 666 665 662 661 656 645 639 644 649 647 647 650 648 645 645 647 649 651 651 652 652 649 647 647 647 648 649 649 650 650 649 647 647 648 647 645 645 644 643 642 642 642 643 644 644 645 645 645 645 645 644 645 647 649 649 650 652 653 656 658 660 662 664 666 668 669 671 674 676 678 681 683 685 687 689 691 692 693 694 696 697 698 699 701 702
654 654 650 653 657 650 635 630 638 643 636 632 637 642 641 642 645 645 646 647 648 647 645 642 641 642 644 644 645 646 647 645 643 644 644 644 643 642 640 640 640 639 638 639 640 640 641 641 641 641 641 640 641 642 643 644 647 648 650 652 654 656 658 660 663 665 667 668 670 671 673 676 678 680 682 684 686 688 690 692 693 694 695 696 699 701
637 634 635 641 639 626 616 621 632 633 625 622 628 633 634 636 639 640 640 642 641 639 638 638 638 638 638 638 639 642 643 641 639 639 640 640 639 638 637 637 637 636 635 636 636 637 638 638 638 639 638 637 637 638 639 640 642 644 646 648 651 653 654 657 659 661 662 664 665 665 668 671 673 675 678 680 682 684 686 689 691 691 692 694 696 698
Wind_Speed
2 2 2 1 1 1 1 1 2 1 3 5 5 6 7 9 9 8 9 3 2 7 9 9 12 16 18 18 20 18 14 14 16 16 14 12 11 10 11 11 11 11 10 8 7 7 10 12 15 16 14 11 9 12 13 13 14 14 15 17 17 15 12 18 28 32 33 35 37 38 36 34 34 35 35 35 35 35 34 33 31 30 30 30 29 28
2 3 2 2 3 2 1 1 1 2 4 5 6 7 7 8 9 10 9 3 1 4 9 12 16 17 16 17 18 16 14 16 17 16 16 15 12 11 12 14 13 10 8 7 8 9 11 11 14 15 15 14 13 13 13 13 14 14 16 17 16 16 16 18 24 30 32 32 33 35 36 35 35 35 35 35 35 34 34 33 32 31 30 29 29 28
3 3 4 4 3 3 2 3 3 4 5 5 5 6 7 5 7 9 5 1 2 4 9 15 16 17 17 17 18 16 14 16 16 16 16 14 12 12 13 13 12 10 8 9 10 11 11 11 12 13 12 16 17 15 13 12 14 16 16 18 18 18 20 22 24 26 31 32 29 28 30 32 31 30 32 34 34 33 33 32 31 31 30 30 30 29
2 2 5 6 4 4 3 3 4 4 5 6 5 5 7 5 5 6 1 4 9 7 10 14 14 15 14 12 13 11 10 12 13 15 14 13 13 13 12 10 10 11 11 11 10 10 10 10 11 13 13 16 18 17 16 14 16 18 17 18 20 20 21 26 28 26 28 31 29 26 27 31 32 28 28 31 31 31 31 31 31 31 31 31 31 30
2 3 5 5 4 5 4 4 5 5 4 5 7 7 8 6 5 7 6 10 13 6 5 12 12 10 5 4 8 4 3 8 9 9 11 11 12 12 11 11 12 12 12 11 10 9 9 9 12 15 14 14 15 18 21 20 19 20 20 19 21 23 23 26 31 29 26 28 30 28 28 29 30 28 27 27 28 29 30 30 30 30 30 29 29 28
2 3 4 5 5 5 5 4 5 4 4 5 6 7 8 7 4 7 10 11 9 3 3 10 9 5 1 6 10 3 3 8 7 7 11 11 10 9 10 11 11 11 11 11 11 9 9 11 12 13 13 14 15 19 25 25 22 21 22 20 20 25 28 28 32 34 30 28 31 33 33 32 30 29 30 32 33 32 31 31 30 29 28 28 27 27
1 3 3 5 5 6 6 5 4 4 5 4 1 2 4 4 4 7 9 8 6 6 5 5 4 6 8 10 7 3 6 10 7 7 11 10 8 8 8 9 9 10 10 10 11 11 11 12 12 13 14 15 18 22 26 24 20 20 22 22 21 23 30 33 33 34 35 33 32 34 33 32 32 31 32 34 36 36 34 32 30 29 28 27 27 27
4 5 4 4 5 6 5 5 5 7 5 3 2 1 2 5 7 7 7 7 5 8 9 4 4 6 9 8 1 1 9 11 8 7 6 6 6 7 8 8 9 10 10 9 10 12 12 13 14 16 16 18 21 23 24 23 20 20 21 23 24 22 25 32 36 35 37 37 36 35 30 25 25 27 30 32 33 34 32 31 30 29 28 27 26 26
2 5 6 6 6 6 4 1 4 9 5 2 3 1 3 4 6 5 6 7 5 7 6 3 3 5 8 7 2 0 6 8 7 6 4 4 4 5 6 7 8 8 9 9 10 11 12 13 16 18 17 19 21 20 21 22 20 19 20 21 24 25 22 26 35 38 37 38 37 37 34 28 22 21 26 31 33 33 32 31 29 28 27 26 25 25
1 1 1 4 6 4 2 2 2 7 4 2 2 2 2 1 2 1 4 6 3 5 4 2 3 4 7 9 3 1 2 5 6 6 5 5 5 5 6 6 6 6 7 8 10 11 12 14 16 17 16 17 19 20 20 21 19 17 19 20 22 25 25 23 29 34 37 41 40 37 37 34 30 25 23 28 33 33 33 32 31 29 28 27 26 26
1 2 2 3 3 1 2 3 1 2 0 1 1 4 4 3 1 1 1 3 3 4 2 1 2 3 6 8 5 2 2 2 4 6 7 8 8 7 6 6 6 5 5 6 8 9 11 14 14 14 15 15 16 19 20 20 20 18 18 22 23 24 25 26 26 27 30 39 43 40 36 35 36 33 29 29 32 34 34 33 32 31 30 28 28 27
1 2 3 1 1 1 2 2 1 2 1 1 1 3 5 3 2 2 2 2 3 3 1 1 3 4 6 7 4 3 4 4 7 8 9 10 10 8 7 7 6 5 6 6 7 8 8 10 12 13 15 15 15 17 19 21 22 19 18 21 25 26 27 28 28 27 26 31 39 41 37 35 36 38 39 37 36 37 37 36 34 32 31 29 28 28
2 3 1 1 1 4 5 4 2 2 2 2 2 2 5 3 1 2 1 2 3 1 2 1 2 4 9 12 11 13 14 14 12 10 10 11 11 9 9 8 6 4 6 6 6 7 7 8 9 11 14 15 15 17 19 20 22 22 20 21 24 27 29 30 31 30 27 26 31 38 39 35 35 37 40 41 39 38 37 37 37 36 36 34 32 32
2 1 2 2 2 5 9 5 2 3 4 4 2 1 3 3 3 3 3 2 3 1 2 3 2 5 8 9 12 16 15 13 12 12 12 11 11 11 9 8 6 5 6 6 6 6 7 8 8 11 13 15 16 17 18 19 21 22 21 23 24 25 27 30 33 33 32 27 25 32 38 36 36 37 37 37 38 39 37 37 38 38 38 38 38 37
3 1 3 5 1 6 11 5 2 2 4 3 1 1 2 2 3 4 2 3 5 5 1 3 2 5 5 4 6 10 11 9 10 10 10 10 9 9 8 8 7 7 6 5 6 7 8 8 9 11 13 15 16 17 18 19 21 21 21 23 25 25 25 27 30 33 35 31 26 26 32 35 37 38 37 35 36 38 38 37 37 37 37 37 38 36
3 3 2 2 0 6 9 2 1 2 3 2 2 1 2 0 2 3 2 2 4 6 3 3 4 6 7 11 13 12 10 8 8 7 7 7 7 6 6 7 7 6 5 4 5 7 8 9 10 12 13 15 17 16 18 20 22 23 22 22 24 26 25 24 27 30 32 33 30 27 29 33 36 38 36 34 34 35 36 36 37 37 35 34 34 33
2 1 2 2 2 5 3 1 1 2 0 3 3 2 1 2 2 3 1 1 1 5 4 3 6 7 7 10 9 6 6 6 6 7 6 5 5 5 6 6 6 6 5 5 5 6 7 8 9 12 14 15 16 17 20 23 25 27 26 24 24 26 25 24 25 27 27 30 32 30 29 31 33 36 37 37 36 35 35 35 36 35 34 33 33 34
2 0 2 1 3 4 1 0 1 2 1 2 2 2 3 1 1 1 2 2 2 5 4 3 8 10 6 4 2 3 6 5 4 5 5 6 6 7 8 8 8 8 7 7 7 6 6 6 8 12 14 16 18 20 23 26 28 28 27 26 26 27 29 27 26 26 27 31 34 31 31 32 33 35 38 39 38 37 36 35 34 34 34 35 35 36
2 2 1 0 2 4 2 2 2 1 1 2 1 2 1 1 2 1 2 3 3 6 5 3 7 9 6 5 5 7 8 5 3 4 6 8 9 8 8 8 8 8 7 7 7 7 7 7 9 11 13 16 19 20 24 26 26 25 26 27 27 28 30 29 25 25 26 31 36 35 34 36 37 38 39 40 38 37 37 37 36 35 36 37 37 37
1 3 1 1 1 4 4 4 4 4 3 1 1 2 1 2 1 1 1 1 2 5 6 4 5 6 6 6 6 11 12 9 7 5 7 9 9 8 8 8 8 7 7 7 8 8 8 9 11 13 13 14 17 19 22 22 24 27 27 27 27 28 29 29 26 26 27 30 35 39 38 37 39 40 40 40 39 39 39 38 38 37 38 38 38 38
2 2 2 2 2 4 4 5 6 7 7 4 5 5 3 2 1 2 2 2 2 3 5 5 6 8 8 6 10 15 14 11 9 9 9 10 10 10 10 10 9 8 8 9 9 10 10 10 12 13 12 12 14 18 21 22 25 27 27 27 28 28 30 31 28 26 28 27 30 39 41 39 39 39 38 39 40 40 41 40 40 40 39 38 38 39
3 2 2 4 4 5 4 2 3 5 7 6 6 6 6 6 4 2 4 4 4 4 4 5 7 12 10 4 6 11 9 8 9 9 9 11 12 12 11 11 10 10 10 11 11 11 10 10 10 11 12 12 14 16 19 22 23 25 27 27 27 28 30 33 29 26 27 24 26 38 43 39 39 38 36 37 39 40 41 39 40 41 40 39 39 39
2 1 2 3 5 4 0 2 2 2 3 3 4 5 6 6 6 5 4 3 5 4 4 3 7 11 7 3 3 5 4 5 6 7 9 10 11 12 13 13 13 12 13 13 12 11 10 8 8 10 12 14 16 17 19 22 23 24 27 27 27 28 31 33 29 26 26 22 25 37 41 38 39 37 35 37 39 40 39 37 37 39 39 40 39 39
2 2 3 3 3 2 2 2 1 2 1 3 5 6 7 7 8 5 1 1 3 5 5 3 7 11 5 4 4 2 2 5 7 8 10 9 9 12 14 14 13 13 13 12 11 10 9 8 7 8 10 12 14 16 19 22 23 23 25 26 28 31 32 31 27 25 24 23 26 35 39 39 40 38 36 36 37 38 37 35 35 37 39 39 40 41
4 3 4 3 2 3 2 2 2 2 4 6 7 8 10 9 8 3 0 1 4 8 11 7 8 11 3 3 4 4 4 9 11 12 12 10 9 11 12 12 11 12 12 13 13 11 9 9 8 7 8 9 11 13 16 20 21 22 23 27 30 30 31 30 26 24 23 23 25 33 38 40 40 38 37 36 36 36 35 34 35 37 38 40 40 41
5 3 4 5 5 5 3 1 1 3 5 5 7 11 14 13 13 7 3 6 8 8 12 11 11 12 10 9 11 11 11 14 16 16 13 9 9 10 11 12 11 11 13 14 13 11 9 8 7 8 8 8 9 11 14 18 21 21 23 26 28 29 31 29 24 22 23 25 27 31 37 38 37 38 40 37 35 35 35 34 34 36 38 40 41 41
2 2 6 7 7 7 3 1 3 4 5 6 8 12 14 14 16 12 6 8 8 5 10 16 15 16 22 22 19 16 15 16 16 14 11 9 10 11 11 12 12 12 12 12 11 10 9 8 8 9 9 8 9 10 13 16 19 21 23 25 26 26 27 26 23 22 24 26 27 30 35 37 37 41 41 37 36 35 35 35 34 35 38 40 41 41
2 4 7 8 10 11 7 2 4 4 5 8 9 12 14 15 17 16 14 11 6 4 11 12 13 17 24 23 20 20 19 17 16 14 13 13 14 14 13 13 14 13 12 10 10 10 9 9 9 10 8 8 9 10 12 14 17 20 21 22 23 23 23 24 25 27 27 25 26 30 34 36 37 39 37 35 35 35 35 35 35 36 39 40 40 41
3 4 5 6 10 13 11 7 5 6 9 10 11 14 14 15 18 20 21 17 10 11 15 9 10 18 23 22 22 22 19 17 16 16 16 16 16 16 15 14 15 14 12 11 11 10 9 9 9 9 8 8 9 10 12 13 15 18 19 18 18 20 23 25 26 28 27 25 28 31 33 32 32 33 33 33 34 34 34 34 35 37 39 39 40 40
4 4 4 5 7 11 12 12 9 10 12 13 16 18 17 18 21 22 23 22 19 21 24 20 20 24 23 23 25 23 19 15 15 16 17 17 17 15 14 14 15 14 12 11 11 9 8 8 9 9 8 9 10 12 12 12 13 15 16 16 16 17 21 22 21 23 26 27 30 30 29 29 28 29 30 32 33 33 33 35 37 38 38 38 39 40
6 3 2 4 4 8 10 10 10 11 13 14 16 19 18 19 21 22 22 21 21 24 28 27 25 24 23 22 21 20 17 13 14 16 16 15 14 13 13 14 14 13 12 11 10 8 7 8 9 9 9 10 11 13 13 12 13 14 14 15 15 15 17 18 19 23 25 26 28 27 27 29 28 28 30 31 32 33 35 37 38 38 38 38 38 38
7 2 3 3 4 5 4 4 7 8 10 14 17 18 18 18 18 19 20 19 20 23 24 21 17 18 19 14 10 12 13 12 15 15 12 12 12 11 13 14 14 13 11 11 10 8 7 8 9 10 10 11 13 15 14 13 14 14 14 15 14 15 16 17 20 23 21 21 25 25 27 30 29 28 29 31 33 35 36 38 38 38 38 37 37 38
7 4 2 3 4 3 2 1 2 4 8 10 12 16 20 21 20 19 17 19 22 21 16 13 14 17 15 7 6 12 14 12 12 10 8 10 12 13 14 14 13 12 11 10 9 8 7 7 8 10 11 12 14 15 15 16 16 15 16 15 15 18 19 18 19 20 19 21 25 24 26 30 29 28 28 31 35 36 36 37 38 38 38 38 37 38
7 6 3 3 3 2 1 1 2 6 10 5 3 6 12 14 17 19 18 19 21 19 16 15 15 16 14 10 11 15 15 12 9 9 8 9 10 13 15 14 11 10 10 9 8 7 7 6 7 9 11 13 15 15 16 17 17 17 17 16 16 20 20 18 19 19 19 23 25 23 25 28 29 28 28 31 34 35 36 38 38 38 38 37 37 39
8 7 3 2 2 1 0 1 4 7 7 1 3 2 6 7 10 14 17 20 20 20 21 21 20 21 20 16 13 13 14 11 10 11 14 13 11 11 13 13 10 9 9 8 7 6 6 7 7 9 11 14 15 15 15 16 17 17 18 18 19 20 20 19 19 20 20 23 25 24 25 28 28 27 28 31 34 34 35 37 38 37 36 36 37 37
9 7 3 2 2 1 1 4 6 6 6 7 10 9 5 5 6 7 13 19 19 20 22 22 23 25 21 17 13 9 7 8 10 12 14 13 10 9 10 10 8 7 8 8 6 6 5 7 9 10 11 13 15 16 16 15 16 16 17 19 19 20 21 21 21 21 20 22 26 27 27 28 28 27 29 31 32 34 36 37 37 37 36 34 31 30
8 6 4 3 4 3 3 6 7 9 12 10 10 7 3 4 6 6 8 12 11 15 19 20 22 23 18 15 11 3 2 4 9 11 9 7 6 7 8 8 7 7 8 8 6 6 6 6 9 10 11 13 14 16 17 17 16 16 16 17 18 19 21 22 22 23 22 21 24 27 28 29 28 28 29 30 32 35 39 38 34 33 34 32 26 25
5 5 6 6 5 4 4 6 6 9 10 4 3 2 1 2 4 4 4 7 5 10 16 17 18 18 14 11 6 4 3 3 6 5 3 3 4 5 6 7 6 6 7 7 5 5 5 6 8 10 12 13 14 15 17 19 19 16 15 17 18 19 20 22 22 24 24 23 23 25 27 30 30 28 29 31 33 35 38 36 31 30 33 31 24 23
4 2 4 6 5 4 5 5 6 8 7 1 2 2 1 1 3 3 4 7 4 6 10 13 14 13 10 6 5 7 5 5 5 3 2 3 4 4 5 5 4 4 6 6 5 5 5 6 8 10 12 13 14 15 16 18 20 18 16 17 18 19 21 23 23 24 25 25 23 22 24 27 29 27 29 32 32 32 33 31 29 30 32 27 23 23
6 4 5 8 7 7 7 6 6 7 4 1 2 3 1 1 3 2 5 6 2 3 5 9 11 9 6 6 7 7 7 6 3 1 1 0 2 3 5 5 4 3 4 5 5 5 4 6 9 11 13 14 15 16 16 17 20 20 19 19 19 20 22 23 23 23 24 24 24 22 23 25 25 25 28 31 30 29 28 26 25 28 29 26 24 25
7 6 6 8 9 10 11 9 7 6 6 8 8 4 3 2 1 3 7 4 3 3 4 7 8 6 6 8 8 7 7 5 1 1 1 1 3 4 5 5 4 4 4 4 5 5 5 7 9 11 12 14 15 17 18 18 19 20 21 21 21 21 22 22 22 22 22 24 25 24 23 24 23 24 27 29 28 26 24 24 25 27 28 28 28 28
6 6 5 7 7 7 8 7 7 8 9 14 14 9 5 4 5 7 5 1 3 3 3 5 6 6 8 9 8 6 5 3 1 2 3 2 4 5 5 4 4 5 4 4 5 6 7 7 9 10 11 12 15 18 20 20 19 19 20 21 22 23 21 20 21 22 22 24 25 24 23 24 25 26 27 27 25 24 25 27 30 31 31 32 32 31
9 7 6 8 7 3 3 6 7 7 6 13 15 9 7 9 9 5 1 0 2 3 3 4 5 6 7 8 8 7 7 5 5 5 5 5 5 6 6 5 5 4 4 5 6 9 10 7 8 11 11 12 16 18 20 21 21 20 20 21 21 22 22 22 23 23 23 23 23 22 22 23 24 25 26 26 27 28 30 31 33 34 35 36 35 34
10 8 5 6 7 6 6 10 8 2 4 13 15 10 13 18 14 4 1 3 4 2 3 3 3 6 8 7 6 8 7 6 7 7 7 7 6 5 5 5 5 4 5 5 7 11 13 9 8 10 11 12 16 18 20 22 21 19 21 21 18 18 21 24 24 24 24 23 23 24 25 25 25 27 28 29 31 34 34 34 34 35 35 35 34 33
12 11 5 5 8 9 8 8 4 2 3 12 13 8 9 18 19 9 2 3 3 2 4 3 2 5 8 7 5 5 5 6 7 7 7 7 6 5 5 5 5 5 5 5 7 12 14 11 9 10 11 13 17 18 20 21 19 19 21 20 18 18 19 21 22 23 24 24 25 29 32 31 30 32 32 33 34 36 37 38 36 33 33 34 35 34
9 10 5 3 6 8 11 11 6 4 6 11 12 9 5 9 13 9 4 5 5 3 4 3 3 4 5 6 5 4 5 7 7 7 7 7 7 7 6 5 6 5 5 5 6 12 13 9 8 10 10 13 17 19 21 23 22 21 21 20 20 21 21 22 23 23 23 22 23 27 30 30 30 32 33 33 35 37 39 41 39 36 36 38 39 38
7 10 8 5 6 6 7 10 14 17 17 12 11 12 11 9 8 6 6 8 7 5 4 5 5 4 3 5 6 6 7 6 6 7 7 5 7 8 7 7 7 6 6 7 9 12 13 9 8 10 10 13 18 21 23 26 29 27 22 19 22 24 25 26 27 25 25 24 23 24 27 27 27 29 30 32 35 35 36 40 41 38 36 37 36 34
7 10 9 9 11 9 6 7 11 15 15 11 10 11 13 13 12 10 9 9 8 7 6 5 6 6 5 6 8 7 7 7 6 7 7 6 7 7 7 7 7 7 7 8 10 12 13 10 9 10 10 13 19 23 25 29 33 33 27 24 25 26 26 27 28 28 29 29 26 26 27 27 27 28 28 30 35 34 31 34 39 36 32 33 34 31
7 9 10 11 12 11 11 11 10 10 10 10 12 13 13 13 13 12 11 9 9 10 10 10 10 8 7 8 8 8 9 10 8 7 7 7 8 7 7 8 8 7 7 9 12 16 16 13 12 13 14 17 22 26 29 32 35 35 33 29 28 27 28 29 29 29 30 30 29 30 31 30 30 31 30 31 36 36 34 35 39 38 34 36 38 37
7 9 10 8 7 10 13 14 12 10 11 10 11 13 15 13 11 11 10 9 10 11 11 12 13 10 8 8 9 9 10 10 10 9 8 7 8 9 8 8 7 6 9 12 14 17 19 19 18 17 18 21 24 25 29 33 35 34 33 32 30 30 30 30 28 27 28 29 27 30 33 31 30 33 33 31 33 35 35 37 39 40 41 42 42 42
11 12 11 10 10 13 13 11 10 11 13 10 8 10 12 13 12 13 12 11 12 13 12 12 13 11 8 8 8 10 11 11 11 10 8 8 10 10 9 9 9 9 11 12 11 11 15 18 19 18 19 22 24 25 28 31 33 34 34 33 33 32 32 32 28 24 25 27 28 32 35 31 29 31 31 28 29 29 27 29 33 37 41 42 40 41
Wind_Direction
297 240 209 250 129 118 75 334 352 10 263 272 270 272 272 281 283 282 290 304 21 310 286 283 283 279 281 278 279 283 277 267 265 262 256 245 238 241 245 243 241 238 237 239 236 228 230 235 237 237 236 233 234 234 228 225 224 213 199 197 206 229 229 186 177 180 178 178 182 184 183 184 185 186 187 188 190 191 191 191 191 192 195 197 198 198
246 244 193 167 149 137 151 197 233 236 243 259 266 279 279 273 278 284 291 295 17 316 288 291 290 276 272 274 273 271 265 262 261 258 255 248 237 234 239 241 240 236 232 228 233 234 222 219 226 230 234 233 233 236 231 227 224 216 208 197 194 207 212 193 182 181 179 178 182 183 182 184 183 184 185 186 188 189 190 192 194 197 199 200 200 200
230 235 164 150 144 142 146 180 210 240 251 256 264 278 280 290 297 283 270 277 319 301 295 304 300 283 271 268 268 264 256 255 256 257 258 258 247 235 236 239 240 236 231 227 229 230 218 208 210 214 226 233 234 236 232 227 221 217 213 199 187 192 198 197 191 182 181 183 183 181 183 183 180 180 183 185 187 189 190 193 196 199 199 200 200 201
241 173 143 142 156 177 178 178 207 251 250 245 261 276 279 311 324 288 257 336 312 288 289 302 295 281 276 266 266 265 256 259 261 261 263 263 254 246 245 247 244 240 238 234 227 225 218 206 201 206 216 223 228 231 229 227 221 219 216 201 188 186 190 195 197 190 182 181 181 180 183 185 184 185 185 185 186 188 190 192 195 197 198 199 200 202
264 94 115 141 177 206 209 193 207 248 257 243 247 257 280 301 300 285 302 318 306 267 280 316 300 279 286 286 280 266 233 261 266 268 267 259 250 248 251 250 247 245 246 246 240 229 218 211 209 211 211 209 213 221 225 225 220 218 217 208 193 186 188 192 196 198 189 178 176 177 177 180 183 184 183 182 182 186 189 190 193 195 197 198 199 202
247 111 138 169 185 206 219 222 211 233 273 266 240 243 275 299 297 288 307 320 309 265 48 5 327 286 332 303 292 303 286 277 271 264 266 264 249 236 239 245 247 248 247 247 249 243 228 223 222 218 212 206 208 218 223 223 220 216 214 211 196 183 185 190 192 197 196 185 177 175 174 176 177 176 180 184 184 186 188 189 192 194 196 197 199 202
180 128 172 189 191 197 220 242 205 199 267 289 254 227 267 287 287 295 312 319 310 304 334 358 302 281 308 309 303 338 314 299 292 271 265 268 260 242 240 243 243 244 240 237 240 241 234 226 223 224 217 210 214 223 224 221 218 216 211 208 203 187 183 188 190 192 193 190 184 179 178 181 182 180 182 187 187 187 188 190 192 194 196 197 200 202
144 155 181 187 193 203 225 244 188 183 247 298 75 51 286 288 288 302 312 297 297 311 303 270 234 266 295 300 260 8 317 313 308 293 272 263 255 248 250 244 239 240 239 236 233 233 233 227 223 225 222 218 222 226 225 221 217 217 213 207 205 200 189 188 191 192 191 191 190 187 184 186 188 186 184 185 187 188 189 190 191 194 197 199 201 202
130 176 187 185 195 215 227 257 159 185 230 354 76 305 296 304 300 308 300 285 304 316 297 192 202 263 278 272 210 117 310 306 296 287 281 284 272 257 257 248 243 242 240 239 237 236 234 230 227 227 227 227 227 224 221 219 216 215 216 211 205 205 204 195 190 192 195 196 195 192 190 191 193 191 185 184 186 189 192 192 192 194 196 198 200 201
38 226 226 203 212 224 194 61 155 197 218 44 82 287 275 253 308 321 289 288 295 285 276 153 205 275 289 282 278 118 263 272 272 270 274 290 290 276 272 263 251 244 241 240 239 239 237 234 233 230 228 229 228 226 222 216 213 212 211 213 208 206 212 211 196 192 195 196 195 194 191 191 192 192 186 182 182 185 188 190 190 193 195 196 197 197
13 320 298 243 244 292 89 76 68 208 23 36 295 292 263 215 185 101 264 280 262 248 264 100 232 278 302 289 277 238 247 264 274 285 293 294 290 282 278 273 262 246 240 239 239 241 239 239 239 234 231 227 225 225 222 215 210 207 206 209 211 209 211 215 208 201 198 194 192 193 192 190 190 190 188 183 181 182 184 186 186 188 192 194 196 195
66 233 229 210 259 287 151 145 100 84 63 268 292 306 283 248 188 192 167 193 255 269 74 67 275 265 260 265 265 262 271 270 275 287 291 289 289 288 281 273 265 250 241 239 240 240 236 236 234 233 235 229 220 216 213 210 205 202 203 204 206 209 210 212 211 209 208 200 192 190 191 192 192 193 192 190 187 184 184 185 185 185 188 190 193 195
176 209 193 68 217 211 200 180 155 154 170 213 213 273 291 297 267 256 242 217 257 298 88 126 278 255 246 255 266 275 276 274 278 283 278 278 281 281 277 272 261 238 235 235 235 234 228 230 226 224 230 226 218 215 209 207 204 200 202 202 202 205 206 208 209 208 210 209 198 189 189 193 195 194 193 191 190 188 186 186 186 186 188 190 193 195
202 143 129 190 209 197 202 199 193 190 176 187 198 243 280 315 326 301 296 281 276 289 136 159 223 259 265 259 249 258 270 274 279 279 270 268 270 271 274 278 276 257 243 235 234 234 225 226 224 221 223 221 219 216 210 208 207 204 202 202 203 203 202 204 205 205 206 209 206 194 190 193 196 195 194 192 192 192 192 190 190 190 191 193 194 194
235 274 163 189 162 171 196 225 348 106 149 161 92 329 272 293 293 287 304 296 301 308 237 163 204 250 275 304 260 266 284 282 274 268 260 259 260 267 276 280 280 268 249 231 226 234 231 226 224 221 220 221 221 214 205 206 208 208 208 206 204 202 201 201 203 204 204 206 208 200 192 194 198 197 194 195 196 195 195 194 193 193 193 193 193 192
251 285 135 149 106 177 190 210 348 134 137 126 96 204 244 253 255 273 311 289 301 308 272 201 237 245 262 287 288 290 296 284 269 256 246 254 251 253 268 268 267 265 250 222 215 227 232 225 220 220 219 219 221 213 204 204 205 207 212 213 210 206 201 200 202 203 204 204 205 203 197 196 198 196 193 194 197 197 197 196 195 195 195 194 192 192
229 293 107 130 195 193 200 141 215 277 138 148 173 188 114 52 286 272 268 185 233 274 264 217 265 278 282 283 280 281 281 267 263 256 240 240 242 243 255 257 257 261 258 239 227 229 229 222 215 217 219 217 215 210 207 207 206 207 209 211 213 210 203 201 202 201 201 202 202 202 201 199 197 196 194 194 197 199 198 198 199 198 197 197 195 195
216 293 97 165 186 174 265 346 122 335 334 176 190 148 112 106 298 300 280 281 251 263 265 225 270 291 305 300 288 268 270 255 236 247 248 246 251 255 256 256 255 253 257 255 248 243 235 232 225 218 219 219 216 212 212 213 211 208 206 206 208 208 204 202 201 200 200 200 200 200 200 201 199 198 197 197 198 200 199 198 199 199 197 198 197 196
214 228 130 306 228 140 151 231 171 141 256 310 6 126 132 241 198 170 272 297 296 291 290 253 275 284 255 245 280 282 282 281 238 226 253 265 264 263 261 260 259 252 252 252 246 244 243 246 243 230 222 222 219 218 218 216 211 207 206 204 204 207 207 202 197 198 198 198 201 201 201 202 202 201 201 200 198 198 199 198 199 199 197 197 196 196
198 248 188 140 201 137 154 225 208 169 167 309 227 168 272 288 235 210 268 309 281 294 304 298 303 283 231 213 250 270 276 284 286 278 278 283 281 283 287 280 272 263 253 248 246 255 260 255 250 242 233 226 223 224 222 214 207 206 206 203 202 207 209 203 197 196 195 195 199 201 200 201 202 201 200 199 197 196 197 198 198 198 197 196 195 195
163 245 213 136 151 165 186 210 201 179 163 176 201 191 188 189 190 279 245 213 239 274 290 288 291 282 266 243 246 262 272 275 281 287 283 283 285 285 284 277 274 269 259 256 260 268 268 260 254 247 243 241 235 230 224 215 209 207 204 201 199 203 206 204 199 195 194 193 195 197 197 198 200 199 198 197 197 196 197 198 199 198 197 196 195 194
175 212 193 153 180 210 211 192 209 201 175 175 194 190 189 178 160 235 239 208 210 235 254 274 292 284 276 255 237 254 268 268 268 271 269 273 277 277 273 268 268 266 263 265 270 272 267 256 253 252 253 257 252 242 228 216 210 206 202 199 197 200 205 205 200 195 193 192 192 194 195 197 198 197 196 196 197 197 197 197 199 200 198 197 196 194
128 195 205 199 210 214 181 54 342 269 192 198 225 198 188 184 185 215 234 192 188 216 250 273 282 275 259 159 187 235 250 269 271 262 263 269 271 272 274 272 269 267 268 271 272 270 266 257 255 257 257 256 253 249 237 221 210 205 201 197 197 201 204 204 200 194 190 190 191 192 192 194 196 196 196 196 198 198 196 196 197 200 200 199 197 195
142 184 212 249 238 158 78 76 44 347 190 219 239 205 192 197 203 216 221 142 194 211 212 213 251 262 254 151 197 220 218 255 261 257 260 267 271 273 275 274 273 273 272 271 268 265 264 263 260 256 255 250 247 247 238 223 209 202 198 195 199 202 201 200 197 191 187 188 190 190 190 191 193 194 194 196 198 198 196 195 195 197 201 200 198 195
184 193 190 239 246 183 168 152 166 216 209 224 232 211 210 209 203 222 346 204 249 225 207 212 247 254 247 126 213 235 240 257 267 269 270 272 274 278 281 279 278 278 277 275 272 268 264 264 263 260 256 252 250 245 234 221 208 198 194 196 200 201 198 196 191 187 186 186 186 189 191 191 191 192 193 195 197 195 195 195 194 195 199 199 198 196
188 196 182 207 230 219 222 203 183 181 182 216 232 215 214 210 202 210 210 217 239 220 202 214 239 258 275 277 271 271 269 275 281 282 280 273 269 277 282 285 286 284 284 284 281 277 268 263 264 264 262 260 257 247 232 222 211 199 194 197 199 196 193 191 185 182 185 183 182 186 190 191 190 191 194 195 194 193 193 194 192 193 197 198 197 195
158 212 215 233 250 250 272 36 111 132 157 190 208 206 207 206 206 210 215 223 225 213 222 227 235 271 285 281 283 288 284 284 288 291 294 292 289 290 287 288 289 287 284 283 283 278 266 260 261 263 263 260 254 243 229 219 209 200 195 195 194 190 186 184 179 178 181 181 181 184 188 191 191 190 192 193 192 191 192 191 191 193 195 196 196 194
142 218 220 233 248 260 287 303 153 170 220 221 214 212 206 201 203 207 220 223 190 204 255 234 210 246 271 275 282 288 286 288 292 295 302 305 303 299 294 291 290 289 287 284 280 271 258 257 259 257 255 247 241 232 220 210 202 196 191 187 185 183 182 182 183 183 181 180 183 185 188 192 193 190 188 188 189 190 189 189 191 194 194 193 193 193
206 227 206 210 240 256 269 264 216 217 246 243 237 235 222 208 203 208 223 224 195 217 251 243 206 238 259 270 276 277 279 288 293 296 302 302 297 293 292 294 294 293 294 292 287 273 255 253 255 249 239 229 224 215 204 197 191 188 182 177 177 179 182 184 186 185 181 179 182 186 189 192 193 189 186 185 186 186 187 188 190 192 193 192 192 192
217 231 199 200 245 260 258 256 244 237 247 248 244 241 232 224 219 218 226 228 221 235 251 258 260 263 265 265 269 273 279 288 292 294 294 290 288 289 291 293 292 294 297 297 294 280 254 246 249 243 229 218 212 202 193 184 179 177 172 170 171 174 179 183 182 181 181 182 185 187 188 189 190 189 186 184 185 185 186 188 188 190 191 191 192 192
215 219 146 160 245 262 254 251 244 238 244 248 250 246 235 231 233 232 234 233 231 241 249 254 263 269 266 261 263 270 279 288 287 285 284 282 283 286 289 291 291 295 301 300 297 284 255 243 244 236 222 216 208 195 186 177 173 172 169 167 168 170 175 179 182 182 182 183 185 185 184 184 186 187 185 184 185 186 187 187 187 188 190 191 192 192
204 211 99 133 249 251 218 235 247 252 257 251 253 252 235 225 229 230 230 226 222 232 243 249 254 258 259 262 262 263 269 274 274 276 279 282 285 285 287 290 292 296 301 301 300 285 251 237 237 231 220 214 208 195 182 173 170 172 170 166 167 170 173 178 184 183 180 180 182 183 181 181 182 185 185 185 185 186 187 187 187 189 190 191 192 193
189 196 158 167 243 252 136 155 266 286 279 253 236 236 227 218 221 228 231 226 219 221 231 235 236 243 251 260 272 272 272 268 268 274 279 284 292 294 290 288 288 292 295 295 297 283 251 233 232 231 221 213 208 198 182 174 174 175 172 167 168 172 175 179 183 181 179 182 183 183 182 181 181 184 185 185 185 186 186 186 187 189 191 193 194 195
185 191 180 177 222 248 169 272 289 277 271 253 156 212 224 215 216 223 230 228 217 213 220 231 242 253 257 253 252 262 268 271 284 297 289 279 282 286 287 285 284 289 293 290 288 275 247 224 223 228 222 213 207 197 185 181 180 178 174 169 170 174 176 178 181 180 180 184 185 184 183 182 183 184 185 185 185 185 186 187 188 190 192 194 195 195
177 189 187 178 227 247 117 266 266 260 254 206 64 250 228 223 224 226 238 240 222 211 220 234 246 253 256 254 246 248 262 282 307 302 286 275 265 264 273 278 278 284 290 289 285 273 241 212 212 221 218 212 205 192 186 187 185 180 176 172 172 175 177 177 181 183 183 185 187 186 186 186 186 186 187 187 187 187 187 188 189 191 193 195 196 196
169 182 179 150 198 211 141 194 224 272 307 303 287 267 217 201 213 224 258 256 229 211 217 228 240 247 251 254 247 239 264 303 309 290 276 269 258 247 250 261 271 278 283 285 281 268 243 211 205 209 209 207 201 188 181 184 187 182 177 175 174 176 178 179 183 187 187 187 188 189 189 188 187 188 188 188 188 188 188 189 191 193 195 195 194 195
171 173 177 197 207 201 215 218 236 299 310 288 267 260 207 183 183 187 259 263 221 203 211 220 235 243 244 249 249 220 65 323 294 280 267 252 240 229 233 249 267 278 277 278 274 265 253 222 201 195 197 201 201 192 181 179 185 185 178 176 178 181 182 183 187 190 191 190 189 190 191 190 190 190 189 187 188 189 191 191 191 193 196 195 191 192
189 183 176 202 213 189 227 248 256 279 278 238 176 219 230 214 188 175 269 279 226 198 202 209 227 238 237 242 237 129 111 261 266 262 240 207 209 217 231 245 257 268 269 268 261 252 241 219 196 185 186 194 201 200 188 178 178 182 181 179 182 185 186 188 191 191 193 194 191 189 191 192 193 193 191 191 191 191 192 192 191 193 197 195 190 191
203 208 181 210 224 183 207 245 242 244 254 108 126 201 210 208 171 152 280 277 242 192 192 203 225 238 234 221 171 139 159 221 239 236 198 184 200 213 233 243 236 245 260 260 254 243 223 203 188 179 182 190 196 199 196 184 177 179 185 187 189 191 193 195 195 193 194 196 192 188 188 191 193 195 195 194 193 192 192 190 189 194 197 193 190 193
199 200 197 217 224 204 208 238 252 244 246 267 211 196 152 134 133 159 264 262 180 142 183 200 223 235 212 168 154 165 197 210 213 228 147 132 255 230 230 241 231 218 239 246 244 237 204 182 181 182 185 191 192 192 194 192 187 186 189 191 194 198 201 201 199 195 194 194 194 192 190 188 190 194 195 194 194 194 192 186 185 190 192 191 193 197
192 193 205 217 222 218 217 234 267 270 239 228 225 191 154 156 140 220 242 223 138 166 195 196 211 206 170 162 165 190 219 218 189 25 33 313 290 262 239 243 241 226 227 232 230 215 189 183 190 194 193 190 186 185 187 193 197 196 192 192 198 204 206 202 199 197 195 193 194 193 189 187 190 194 195 195 193 190 186 184 185 189 191 193 196 200
173 184 208 216 218 219 218 235 278 287 243 211 194 168 158 200 227 227 228 114 116 177 192 203 206 174 163 180 193 211 233 238 258 287 269 245 257 266 261 250 237 228 214 211 213 201 190 189 195 199 197 187 181 182 184 189 200 205 201 199 201 202 201 200 199 197 196 195 195 194 190 190 192 191 190 189 185 183 188 194 197 199 199 199 201 203
162 167 194 201 193 168 181 215 246 271 230 180 164 157 182 215 232 239 233 230 198 182 189 220 206 175 174 191 207 227 246 261 266 268 270 259 251 259 261 249 243 234 204 195 202 196 191 192 197 200 199 189 185 185 185 189 197 205 210 212 206 196 191 194 196 196 197 197 196 194 190 189 190 190 190 190 192 196 199 200 201 203 203 202 202 204
170 178 186 186 176 157 181 206 214 231 156 159 162 173 196 211 227 242 168 227 230 184 195 225 199 187 192 195 206 221 234 253 263 264 266 261 253 251 253 246 245 239 214 203 201 195 192 192 195 197 196 192 191 191 191 194 197 201 209 215 210 195 189 190 191 193 197 198 198 198 197 196 197 199 200 200 201 202 201 200 201 202 202 202 202 202
190 189 177 178 191 195 212 216 193 78 156 185 195 206 201 213 225 226 183 235 250 182 184 210 194 186 195 206 217 219 222 233 245 251 255 260 262 258 254 253 249 239 228 224 211 201 199 195 190 191 194 196 197 196 198 199 199 202 207 207 199 191 189 189 189 190 193 194 194 198 200 201 202 203 203 202 200 200 200 200 199 198 199 201 201 200
200 185 181 188 193 217 252 252 233 246 234 208 217 239 234 223 229 225 217 242 246 212 185 198 215 195 187 201 214 220 230 232 240 251 252 256 266 262 255 257 256 241 226 224 211 202 199 196 190 189 195 200 201 201 204 205 206 209 209 201 192 189 188 189 192 194 195 195 194 196 198 199 200 202 202 202 200 200 200 199 197 196 198 200 201 201
210 194 201 207 177 191 244 228 215 230 234 217 220 239 241 241 239 226 225 237 242 239 218 219 243 243 188 181 202 224 239 236 238 252 251 246 255 259 255 253 251 239 224 224 217 202 193 191 197 197 198 204 205 205 207 210 213 215 210 200 196 195 192 192 194 196 199 200 198 197 198 199 199 200 201 202 201 201 201 201 199 198 198 197 198 200
188 182 197 217 210 213 236 205 204 232 241 223 221 234 235 237 236 230 232 239 248 258 248 231 236 236 214 204 210 226 247 246 237 244 251 248 247 250 253 253 252 244 234 226 217 205 195 193 202 200 197 206 209 208 209 213 217 217 213 208 204 201 197 196 197 197 199 199 197 197 198 199 200 199 199 202 203 201 201 201 201 201 200 199 197 196
142 165 192 212 216 233 256 246 233 254 261 235 226 233 238 239 238 236 237 237 243 255 256 249 240 229 224 231 225 222 240 249 244 241 245 250 252 249 249 253 255 251 240 230 219 211 206 207 208 205 207 215 215 212 212 217 220 219 216 214 209 202 198 199 200 199 199 198 198 199 199 199 200 200 200 202 205 206 207 207 206 206 207 208 207 205
156 186 196 199 210 227 236 230 221 237 250 237 223 227 235 237 237 238 236 229 231 237 241 249 253 246 230 229 226 223 233 244 247 243 238 241 249 251 251 253 255 253 247 241 228 216 214 218 220 217 219 222 220 216 216 219 222 221 218 214 209 203 200 199 199 200 201 199 199 200 200 199 200 201 201 201 203 206 211 214 214 214 215 217 217 218
194 198 186 189 218 230 226 213 208 228 245 246 228 219 223 226 228 230 229 226 231 234 231 238 251 253 243 226 213 213 226 236 241 242 242 243 246 250 253 253 252 254 254 248 232 212 216 224 225 225 230 230 225 220 220 221 222 222 219 214 209 205 202 198 195 197 200 201 202 203 201 198 198 200 201 201 201 202 205 210 216 219 221 221 222 222